COSMOS 1275 DEB, 12673

Orbit data source: Space-Track

COSMOS 1275 DEB, 12673 is space debris in LEO originally from a launch on Thu, 04 Jun 1981 UTC launched from the Plesetsk Missile And Space Complex (PKMTR). Debris objects in space refer to the collection of defunct objects orbiting the Earth. Examples of debris include non-operational satellites, rocket bodies, and fragments generated from explosions, collisions, or faulty payload assembly.

Loading next visibility...
Identifier
12673, 1981-053AD
Orbit
LEO
Country
Flag of CISCIS
Related business
Manufacturer
Unknown
Mission
Spacecraft
Bus & Motor
Unknown
Mass
Unknown
Launch date (UTC)
1981-06-04 (44 years ago)
Launch vehicle
Unknown
Launch site
Plesetsk Missile And Space Complex (PKMTR)
Object type
Payload
Rocket body
Debris
Shape & HBR
Unknown
Radar Cross Section
Medium (>0.1 m² and <1 m²)

Expand to show TLE details & history
Last TLE update: 20 hours ago

TLE from 20 hours ago
0 COSMOS 1275 DEB
1 12673U 81053AD  25260.77747284  .00001881  00000-0  10351-2 0  9997
2 12673  82.8534 359.1686 0036911 294.3972 185.3323 14.10840215236467
Epoch: 2025-09-17T18:39Z
TLE epoch observation values (Epoch: 2025-09-17T18:39:33.653Z)
Latitude
59.63306°
Longitude
-109.96075°
Altitude
893.228 km
Speed
7.397 km/s
True Right ascension
11h 07m 30s
True Declination
59° 29' 08"
Sunlit
Object was in daylight at epoch
Visualization orbit readout
Latitude
Unknown
Longitude
Unknown
Altitude
Unknown
Speed
Unknown
Apparent Right ascension
Unknown
Apparent Declination
Unknown
Sunlit
N/A
Visualization observer readout
Local Sidereal Time
07:19:49
Azimuth
Unknown
Elevation
Unknown
Doppler factor
Unknown
Orbital elements
Apogee altitude
880.294 km
Perigee altitude
826.908 km
Semi-major axis
7,231.738 km
Eccentricity
0.00369
Inclination
82.8534°
RAAN
359.1686°
Arg. of periapsis
294.3972°
True anomaly
185.29317°
Mean anomaly
185.3323°
Eccentric anomaly
185.31272°
Mean motion
3.52922 °/min
Orbital period
102.01 mins
BSTAR
0.0010351
Loading maneuver chart data...
Computing Atmospheric mass density...
Loading historical data...
Loading historical data...
Loading historical data...
Loading historical data...
Loading historical data...
Loading historical data...
Loading historical data...

Documentation

Showing up to 5 results
|